Terug naar catalogus

APSTAR 6

ActiefCommunicatieGEO
NORAD 28638·PAYLOAD·🇨🇳 China

Gelanceerd Apr 12, 2005 vanaf Xichang Satellite Launch Center

Loading…

TLE

VersSource: Space-Track

Epoch: Sep 14, 2026, 13:09 UTC

1 28638U 05012A   26257.54853520 -.00000120  00000-0  00000-0 0  9993
2 28638   7.5862  68.1616 0005881 309.0830   8.8737  0.98572649102916

Volg APSTAR 6 in realtime met AllMySat

Download on the App Store